Bellefontaine, OH

10:42 PM EDT on August 16, 2017 (GMT -0400)
Bellefontaine

Weather History for KEDJ - November, 2011

Change the Weather History Date:

Friday, November 18, 2011

  Actual Average (KDLZ) Record (KDLZ)
Temperature  
Mean Temperature 34 °F -  
Max Temperature 44 °F 50 °F 73 °F (1954)
Min Temperature 24 °F 31 °F 9 °F (1959)
Degree Days  
Heating Degree Days 31    
Moisture  
Dew Point 19 °F    
Average Humidity 57    
Maximum Humidity 80    
Minimum Humidity 31    
Precipitation  
Precipitation 0.00 in - - ()
Sea Level Pressure  
Sea Level Pressure 30.24 in    
Wind  
Wind Speed 9 mph (SSE)    
Max Wind Speed 22 mph    
Max Gust Speed 29 mph    
Visibility 10 miles    
Events      
Averages and records for this station are not official NWS values.
T = Trace of Precipitation, MM = Missing Value Source: NWS Daily Summary

Daily Weather History Graph

Daily Weather History Graph

Search for Another Location

Airport or City:

Trip Planner

Search our weather history database for the weather conditions in past years. The results will help you decide how hot, cold, wet, or windy it might be!

Date:

Astronomy

Nov. 18, 2011 Rise Set
Actual Time 7:24 AM EST 5:15 PM EST
Civil Twilight 6:55 AM EST 5:45 PM EST
Nautical Twilight 6:21 AM EST 6:18 PM EST
Astronomical Twilight 5:49 AM EST 6:50 PM EST
Moon No Moon Rise 1:02 PM EST (11/18)
Length of Visible Light 10h 50m
Length of Day
9h 51m
Waning Gibbous, 49% of the Moon is Illuminated
Nov 18
Waning Gibbous
Nov 25
New
Dec 2
First Quarter
Dec 10
Full
Dec 17
Last Quarter

Hourly Weather History & Observations

Time (EST) Temp. Windchill Dew Point Humidity Pressure Visibility Wind Dir Wind Speed Gust Speed Precip Events Conditions
12:15 AM 26.6 °F 21.2 °F 19.4 °F 74% 30.26 in 10.0 mi South 4.6 mph - 0.00 in   Clear
12:35 AM 26.6 °F - 19.4 °F 74% 30.27 in 10.0 mi Calm Calm - 0.00 in   Clear
12:55 AM 26.6 °F 21.2 °F 19.4 °F 74% 30.27 in 10.0 mi South 4.6 mph - 0.00 in   Clear
1:15 AM 26.6 °F 21.2 °F 19.4 °F 74% 30.27 in 10.0 mi SSW 4.6 mph - 0.00 in   Clear
1:35 AM 26.6 °F 22.6 °F 19.4 °F 74% 30.28 in 10.0 mi South 3.5 mph - 0.00 in   Clear
1:55 AM 26.6 °F - 19.4 °F 74% 30.28 in 10.0 mi Calm Calm - 0.00 in   Clear
2:15 AM 26.6 °F 20.0 °F 19.4 °F 74% 30.29 in 10.0 mi South 5.8 mph - 0.00 in   Clear
2:35 AM 26.6 °F 19.1 °F 19.4 °F 74% 30.29 in 10.0 mi SE 6.9 mph - 0.00 in   Clear
2:55 AM 26.6 °F 19.1 °F 19.4 °F 74% 30.29 in 10.0 mi SE 6.9 mph - 0.00 in   Clear
3:35 AM 24.8 °F 16.9 °F 19.4 °F 80% 30.30 in 10.0 mi SE 6.9 mph - 0.00 in   Clear
3:55 AM 26.6 °F 19.1 °F 19.4 °F 74% 30.30 in 10.0 mi SE 6.9 mph - 0.00 in   Clear
4:15 AM 26.6 °F 19.1 °F 19.4 °F 74% 30.30 in 10.0 mi SE 6.9 mph - 0.00 in   Clear
4:55 AM 26.6 °F 19.1 °F 19.4 °F 74% 30.31 in 10.0 mi SE 6.9 mph - 0.00 in   Clear
5:15 AM 26.6 °F 18.2 °F 19.4 °F 74% 30.31 in 10.0 mi SE 8.1 mph - 0.00 in   Clear
5:35 AM 24.8 °F 16.1 °F 19.4 °F 80% 30.31 in 10.0 mi SE 8.1 mph - 0.00 in   Clear
5:55 AM 24.8 °F 15.3 °F 19.4 °F 80% 30.31 in 10.0 mi SE 9.2 mph - 0.00 in   Clear
6:15 AM 24.8 °F 15.3 °F 19.4 °F 80% 30.32 in 10.0 mi SSE 9.2 mph - 0.00 in   Clear
6:35 AM 26.6 °F 18.2 °F 19.4 °F 74% 30.32 in 10.0 mi SSE 8.1 mph - 0.00 in   Clear
6:55 AM 26.6 °F 18.2 °F 19.4 °F 74% 30.32 in 10.0 mi SSE 8.1 mph - 0.00 in   Clear
7:15 AM 26.6 °F 17.5 °F 19.4 °F 74% 30.32 in 10.0 mi SSE 9.2 mph - 0.00 in   Clear
7:35 AM 26.6 °F 17.5 °F 19.4 °F 74% 30.33 in 10.0 mi SSE 9.2 mph - 0.00 in   Clear
7:55 AM 26.6 °F 16.8 °F 19.4 °F 74% 30.33 in 10.0 mi SSE 10.4 mph - 0.00 in   Clear
8:15 AM 28.4 °F 19.7 °F 19.4 °F 69% 30.33 in 10.0 mi SSE 9.2 mph - 0.00 in   Clear
8:35 AM 30.2 °F 21.9 °F 19.4 °F 64% 30.32 in 10.0 mi SSE 9.2 mph - 0.00 in   Clear
8:55 AM 30.2 °F 22.6 °F 21.2 °F 69% 30.33 in 10.0 mi South 8.1 mph - 0.00 in   Clear
9:15 AM 32.0 °F 23.6 °F 21.2 °F 64% 30.33 in 10.0 mi South 10.4 mph - 0.00 in   Clear
9:35 AM 33.8 °F 27.0 °F 23.0 °F 65% 30.32 in 10.0 mi South 8.1 mph - 0.00 in   Clear
9:55 AM 35.6 °F 27.5 °F 21.2 °F 56% 30.32 in 10.0 mi South 11.5 mph - 0.00 in   Clear
10:15 AM 37.4 °F 28.9 °F 21.2 °F 52% 30.31 in 10.0 mi South 13.8 mph - 0.00 in   Clear
10:35 AM 39.2 °F 31.2 °F 19.4 °F 45% 30.31 in 10.0 mi South 13.8 mph - 0.00 in   Clear
10:50 AM 39.2 °F 30.5 °F 19.4 °F 45% 30.31 in 10.0 mi South 16.1 mph 20.7 mph 0.00 in   Clear
11:15 AM 39.2 °F 30.2 °F 17.6 °F 42% 30.30 in 10.0 mi SSW 17.3 mph 24.2 mph 0.00 in   Clear
11:35 AM 41.0 °F 32.2 °F 17.6 °F 39% 30.29 in 10.0 mi South 18.4 mph 24.2 mph 0.00 in   Clear
11:55 AM 41.0 °F 32.2 °F 17.6 °F 39% 30.28 in 10.0 mi South 18.4 mph 27.6 mph 0.00 in   Clear
12:10 PM 42.8 °F 34.5 °F 17.6 °F 36% 30.27 in 10.0 mi South 18.4 mph 25.3 mph 0.00 in   Clear
12:35 PM 42.8 °F 33.8 °F 17.6 °F 36% 30.25 in 10.0 mi South 21.9 mph 28.8 mph 0.00 in   Clear
12:55 PM 42.8 °F 34.5 °F 17.6 °F 36% 30.24 in 10.0 mi South 18.4 mph 26.5 mph 0.00 in   Clear
1:15 PM 42.8 °F 34.5 °F 17.6 °F 36% 30.23 in 10.0 mi South 18.4 mph 24.2 mph 0.00 in   Clear
1:35 PM 44.6 °F 36.4 °F 15.8 °F 31% 30.22 in 10.0 mi South 20.7 mph 28.8 mph 0.00 in   Clear
1:55 PM 44.6 °F 36.1 °F 15.8 °F 31% 30.22 in 10.0 mi South 21.9 mph 26.5 mph 0.00 in   Clear
2:35 PM 44.6 °F 37.4 °F 15.8 °F 31% 30.19 in 10.0 mi South 16.1 mph - 0.00 in   Clear
2:55 PM 44.6 °F 37.2 °F 17.6 °F 34% 30.19 in 10.0 mi South 17.3 mph 24.2 mph 0.00 in   Clear
3:15 PM 44.6 °F 36.4 °F 17.6 °F 34% 30.17 in 10.0 mi South 20.7 mph - 0.00 in   Clear
3:55 PM 44.6 °F 37.2 °F 17.6 °F 34% 30.16 in 10.0 mi South 17.3 mph 24.2 mph 0.00 in   Clear
4:10 PM 42.8 °F 34.8 °F 19.4 °F 39% 30.16 in 10.0 mi SSE 17.3 mph 24.2 mph 0.00 in   Clear
4:35 PM 42.8 °F 35.1 °F 19.4 °F 39% 30.15 in 10.0 mi South 16.1 mph 24.2 mph 0.00 in   Clear
4:55 PM 41.0 °F 33.9 °F 19.4 °F 42% 30.15 in 10.0 mi SSE 12.7 mph 19.6 mph 0.00 in   Clear
5:10 PM 39.2 °F 31.2 °F 19.4 °F 45% 30.15 in 10.0 mi SSE 13.8 mph - 0.00 in   Clear
5:35 PM 39.2 °F 30.5 °F 19.4 °F 45% 30.14 in 10.0 mi South 16.1 mph 21.9 mph 0.00 in   Clear
5:55 PM 39.2 °F 31.2 °F 19.4 °F 45% 30.14 in 10.0 mi SSE 13.8 mph - 0.00 in   Clear
6:15 PM 39.2 °F 30.2 °F 19.4 °F 45% 30.13 in 10.0 mi South 17.3 mph 20.7 mph 0.00 in   Partly Cloudy
6:35 PM 39.2 °F 30.2 °F 19.4 °F 45% 30.12 in 10.0 mi SSE 17.3 mph - 0.00 in   Mostly Cloudy
6:55 PM 39.2 °F 30.8 °F 21.2 °F 49% 30.12 in 10.0 mi SSE 15.0 mph 20.7 mph 0.00 in   Mostly Cloudy
7:10 PM 37.4 °F 28.2 °F 21.2 °F 52% 30.12 in 10.0 mi SSE 16.1 mph 20.7 mph 0.00 in   Mostly Cloudy
7:35 PM 39.2 °F 29.8 °F 21.2 °F 49% 30.11 in 10.0 mi SSE 18.4 mph 24.2 mph 0.00 in   Scattered Clouds
7:55 PM 37.4 °F 27.8 °F 21.2 °F 52% 30.11 in 10.0 mi SSE 17.3 mph 24.2 mph 0.00 in   Scattered Clouds
8:15 PM 37.4 °F 28.5 °F 21.2 °F 52% 30.11 in 10.0 mi SSE 15.0 mph 21.9 mph 0.00 in   Scattered Clouds
8:35 PM 37.4 °F 28.9 °F 21.2 °F 52% 30.11 in 10.0 mi South 13.8 mph 21.9 mph 0.00 in   Partly Cloudy
8:55 PM 37.4 °F 28.5 °F 21.2 °F 52% 30.10 in 10.0 mi SSE 15.0 mph 21.9 mph 0.00 in   Clear
9:10 PM 37.4 °F 28.9 °F 21.2 °F 52% 30.10 in 10.0 mi SSE 13.8 mph 20.7 mph 0.00 in   Clear
9:55 PM 37.4 °F 28.9 °F 21.2 °F 52% 30.10 in 10.0 mi SSE 13.8 mph 18.4 mph 0.00 in   Clear
10:10 PM 37.4 °F 28.5 °F 21.2 °F 52% 30.10 in 10.0 mi SSE 15.0 mph - 0.00 in   Clear
10:35 PM 35.6 °F 26.6 °F 21.2 °F 56% 30.09 in 10.0 mi SSE 13.8 mph - 0.00 in   Clear
10:55 PM 35.6 °F 27.1 °F 21.2 °F 56% 30.09 in 10.0 mi SSE 12.7 mph - 0.00 in   Clear
11:10 PM 35.6 °F 28.0 °F 21.2 °F 56% 30.09 in 10.0 mi SSE 10.4 mph - 0.00 in   Clear
11:35 PM 35.6 °F 28.0 °F 21.2 °F 56% 30.09 in 10.0 mi SSE 10.4 mph - 0.00 in   Clear
11:55 PM 37.4 °F 29.8 °F 21.2 °F 52% 30.08 in 10.0 mi SSE 11.5 mph - 0.00 in   Clear